x

8557380 - Lewes, De (lwsd1) Weather Station

5:30am - Sat 28th May 2016 All times are EDT. -4 hours from GMT.

  • Wind
    9mph, 13mph gusts
  • Sea Temp 61°f
  • Air Temp 69°f
  • Sea Pressure 1020.5mb
  • 8557380 - Lewes, De
  • 8557380 - Lewes, De

More Historic Weather Station data

Upgrade to MSW Pro to gain access to the past 30 days of data for over 8000 Wavebouys and Weather Stations around the globe.

Join Pro

Comparision Forecast

View Surf forecast
   
Sat 05/28 5:30am 9 13 mph 1020.5mb 61f 69f
5:24am 8 13 mph 1020.4mb 61f 69f
5:18am 8 11 mph 1020.4mb 61f 69f
5:12am 9 17 mph 1020.4mb 61f 69f
5:06am 9 15 mph 1020.3mb 61f 69f
5:00am 9 14 mph 1020.3mb 61f 69f
4:54am 9 14 mph 1020.3mb 61f 69f
4:48am 10 16 mph 1020.3mb 61f 69f
4:42am 10 18 mph 1020.2mb 61f 69f
4:36am 10 16 mph 1020.2mb 61f 69f
4:30am 11 17 mph 1020.1mb 61f 69f
4:24am 9 14 mph 1020mb 61f 69f
4:18am 10 17 mph 1019.9mb 61f 70f
4:12am 11 16 mph 1019.8mb 62f 70f
4:06am 11 17 mph 1019.8mb 62f 70f
4:00am 9 17 mph 1019.8mb 62f 70f
3:54am 10 15 mph 1019.8mb 62f 70f
3:48am 9 16 mph 1019.8mb 62f 70f
3:42am 9 15 mph 1019.8mb 62f 70f
3:36am 10 14 mph 1019.7mb 62f 70f
3:30am 9 15 mph 1019.7mb 62f 70f
3:24am 8 15 mph 1019.7mb 62f 70f
3:18am 7 15 mph 1019.7mb 62f 70f
3:12am 9 14 mph 1019.7mb 62f 70f
3:06am 9 13 mph 1019.8mb 62f 70f
3:00am 9 15 mph 1019.8mb 62f 70f
2:54am 8 14 mph 1019.8mb 62f 71f
2:48am 8 16 mph 1019.8mb 62f 71f
2:42am 10 16 mph 1019.8mb 62f 71f
2:36am 8 13 mph 1019.8mb 62f 71f
2:30am 10 16 mph 1019.8mb 62f 71f
2:24am 9 16 mph 1019.8mb 62f 71f
2:18am  -  mph 1019.9mb 62f 71f
2:12am  -  mph 1020mb 62f 71f
2:06am  -  mph 1020mb 62f 71f
2:00am  -  mph 1020mb 62f 71f
1:54am  -  mph 1020mb 62f 71f
1:48am 8 13 mph 1020.1mb 62f 71f
1:42am 8 16 mph 1020.1mb 62f 71f
1:36am 8 14 mph 1020.1mb 62f 71f
1:30am 10 15 mph 1020mb 62f 71f
1:24am 9 16 mph 1020mb 62f 72f
1:18am 8 14 mph 1020mb 62f 72f
1:12am 8 13 mph 1020mb 62f 72f
1:06am 8 13 mph 1020mb 62f 72f
1:00am 10 20 mph 1020mb 62f 72f
12:54am 9 15 mph 1020mb 62f 72f
12:48am 9 15 mph 1020mb 62f 72f
12:42am 7 13 mph 1020.1mb 62f 72f
12:36am 8 14 mph 1020mb 62f 72f
12:30am 10 15 mph 1020mb 62f 72f
12:24am 9 14 mph 1020mb 62f 72f
12:18am 10 16 mph 1020mb 62f 72f
12:12am 10 17 mph 1020.1mb 62f 72f
12:06am 10 15 mph 1020mb 62f 72f
12:00am 8 14 mph 1020.1mb 62f 72f
Fri 05/27 11:54pm 9 17 mph 1020.1mb 62f 73f
11:48pm  -  mph 1020.1mb 62f 73f
11:42pm  -  mph 1020mb 61f 73f
11:36pm  -  mph 1020.1mb 61f 73f
11:30pm 9 17 mph 1020.1mb 61f 73f
11:24pm 9 15 mph 1020.1mb 61f 73f
11:18pm 9 16 mph 1020mb 61f 73f
11:12pm  -  mph 1020mb 61f -
11:06pm  -  mph 1019.9mb 61f -
11:00pm 8 17 mph 1019.9mb 61f -
10:54pm 8 14 mph 1019.9mb 61f -
10:48pm  -  mph - 61f -
10:42pm  -  mph - 62f -
10:36pm  -  mph - 62f -
10:30pm  -  mph 1019.9mb - -
10:24pm  -  mph 1019.9mb - -
10:18pm  -  mph 1019.9mb - 73f
10:12pm  -  mph 1019.9mb - 74f
10:06pm  -  mph 1019.8mb - 74f
10:00pm 7 14 mph 1019.7mb - -
9:54pm 8 14 mph 1019.7mb - -
9:48pm  -  mph 1019.7mb 62f -
9:42pm  -  mph 1019.6mb 62f -
9:36pm  -  mph 1019.6mb 62f -
9:30pm 10 18 mph 1019.5mb 62f -
9:24pm 8 14 mph 1019.5mb 62f -
9:18pm  -  mph 1019.5mb 62f -
9:12pm  -  mph 1019.4mb 62f -
9:06pm  -  mph 1019.4mb 62f -
9:00pm 10 16 mph 1019.3mb - -
8:54pm 8 13 mph 1019.2mb - -
8:48pm  -  mph 1019.1mb 62f -
8:42pm  -  mph 1019mb 62f -
8:36pm  -  mph 1019mb 62f -
8:30pm 8 13 mph 1018.8mb 62f -
8:24pm 8 15 mph 1018.7mb 62f -
8:18pm  -  mph - 62f 76f
8:12pm  -  mph - 62f 76f
8:06pm  -  mph - 62f 76f
8:00pm  -  mph 1018.6mb 62f -
7:54pm  -  mph 1018.6mb 62f -
7:48pm  -  mph 1018.6mb 62f -
7:42pm  -  mph 1018.5mb 62f -
7:36pm  -  mph 1018.5mb 62f -
7:30pm 7 13 mph 1018.5mb 62f -
7:24pm 9 14 mph 1018.4mb 62f -
7:18pm  -  mph 1018.3mb 63f 78f
7:12pm  -  mph 1018.3mb 63f 78f
7:06pm  -  mph 1018.2mb 63f 79f
7:00pm 10 17 mph 1018.2mb - -
6:54pm 10 16 mph 1018.1mb - -
6:48pm 7 13 mph 1018mb - -
6:42pm 9 15 mph 1017.9mb - -
6:36pm 10 14 mph 1017.9mb - -
6:30pm 11 18 mph 1018mb 63f -
6:24pm 11 17 mph 1018.1mb 63f -
6:18pm  -  mph 1018.1mb 63f -
6:12pm  -  mph 1018.1mb 63f -
6:06pm  -  mph 1018.1mb 63f -
6:00pm  -  mph 1018.2mb - -
5:54pm  -  mph 1018.2mb - -
5:48pm  -  mph 1018.1mb 63f -
5:42pm  -  mph 1018.1mb 63f -
5:36pm  -  mph 1018.1mb 63f -
5:30pm 14 22 mph 1018.2mb 63f 82f
5:24pm 10 18 mph 1018.1mb 63f 82f
5:18pm 9 18 mph 1018mb 63f 83f
5:12pm 9 17 mph 1018mb 63f 83f
5:06pm 9 17 mph 1018.1mb 63f 83f
5:00pm 11 20 mph 1018mb 63f 83f
4:54pm 11 22 mph 1018mb 63f 83f
4:48pm 13 17 mph 1018mb 63f 83f
4:42pm 16 22 mph 1018mb 63f 83f
4:36pm 13 20 mph 1018.1mb 63f 83f
4:30pm 14 18 mph 1018mb 63f 83f
4:24pm 15 21 mph 1018.1mb 63f 83f
4:18pm 10 15 mph 1018.2mb 63f 84f
4:12pm 8 16 mph 1018.2mb 63f 84f
4:06pm 7 15 mph 1018.1mb 63f 84f
4:00pm 9 16 mph 1018.2mb 63f 82f
3:54pm 14 21 mph 1018.1mb 63f 83f
3:48pm 11 17 mph 1018mb 63f 83f
3:42pm 13 18 mph 1018.1mb 63f 83f
3:36pm 13 16 mph 1018.1mb 63f 83f
3:30pm 11 16 mph 1018.1mb 63f 83f
3:24pm 13 17 mph 1018mb 63f 82f
3:18pm 13 17 mph 1018.1mb 63f 82f
3:12pm 9 14 mph 1018.1mb 63f 82f
3:06pm 11 16 mph 1018.1mb 64f 83f
3:00pm 9 15 mph 1018.2mb 63f 83f
2:54pm 7 11 mph 1018.2mb 64f 83f
2:48pm 8 14 mph 1018.2mb 63f 83f
2:42pm 5 14 mph 1018.1mb 63f 84f
2:36pm 9 13 mph 1018.3mb 63f 84f
2:30pm 14 18 mph 1018.2mb 63f 84f
2:24pm 13 17 mph 1018.2mb 63f 85f
2:18pm 10 14 mph 1018.2mb 63f 85f
2:12pm 13 16 mph 1018.3mb 63f 85f
2:06pm 14 21 mph 1018.1mb 63f 85f
2:00pm 8 13 mph 1018.2mb 63f 86f
1:54pm 8 13 mph 1018.2mb 63f 86f
1:48pm 9 14 mph 1018.4mb 63f 87f
1:42pm 6 13 mph 1018.4mb 63f 88f
1:36pm 8 13 mph 1018.4mb 63f 87f
1:30pm 6 11 mph 1018.4mb 63f 87f
1:24pm 9 15 mph 1018.5mb 63f 86f
1:18pm 8 10 mph 1018.6mb 63f 87f
1:12pm 9 13 mph 1018.6mb 63f 86f
1:06pm 10 14 mph 1018.6mb 63f 86f
1:00pm 10 16 mph 1018.7mb 63f 86f
12:54pm 9 13 mph 1018.7mb 62f 87f
12:48pm 9 13 mph 1018.7mb 62f 85f
12:42pm 8 14 mph 1018.7mb 62f 85f
12:36pm 8 15 mph 1018.7mb 61f 86f
12:30pm 9 15 mph 1018.7mb 61f 85f
12:24pm 10 15 mph 1018.8mb 62f 85f
12:18pm 7 11 mph 1018.8mb 62f 86f
12:12pm 5 8 mph 1018.8mb 62f 85f
12:06pm 6 9 mph 1018.9mb 62f 85f
12:00pm 6 11 mph 1018.9mb 62f 85f
11:54am 6 15 mph 1018.9mb 61f 84f
11:48am 8 14 mph 1018.9mb 61f 84f
11:42am 7 11 mph 1018.8mb 61f 83f
11:36am 6 10 mph 1018.9mb 61f 84f
11:30am 7 11 mph 1018.8mb 61f 83f
11:24am 7 13 mph 1018.8mb 61f 83f
11:18am 8 13 mph 1018.9mb 61f 83f
11:12am 9 13 mph 1018.9mb 61f 82f
11:06am 9 13 mph 1018.9mb 60f 82f
11:00am 11 15 mph 1019mb 60f 82f
10:54am 5 9 mph 1019mb 60f 82f
10:48am 8 13 mph 1019mb 60f 81f
10:42am 9 14 mph 1019.1mb 60f 81f
10:36am 9 13 mph 1019.1mb 60f 80f
10:30am 8 11 mph 1018.9mb 60f 81f
10:24am 7 11 mph 1018.8mb 60f 80f
10:18am 6 11 mph 1018.9mb 60f 81f
10:12am 5 8 mph 1018.9mb 60f 80f
10:06am 5 8 mph 1018.8mb 60f 80f
10:00am 6 10 mph 1018.8mb 60f 79f
9:54am 6 9 mph 1018.9mb 60f 79f
9:48am 9 13 mph 1019mb 59f 78f
9:42am 9 13 mph 1019mb 59f 78f
9:36am 8 11 mph 1019.1mb 59f 78f
9:30am 8 13 mph 1019.2mb 59f 78f
9:24am 8 13 mph 1019.2mb 59f 78f
9:18am 9 14 mph 1019.2mb 59f 77f
9:12am 10 14 mph 1019.2mb 59f 77f
9:06am 8 11 mph 1019.2mb 59f 77f
9:00am 8 14 mph 1019.1mb 59f 77f
8:54am 9 14 mph 1019.1mb 59f 76f
8:48am 8 15 mph 1019mb 59f 76f
8:42am 6 11 mph 1019mb 59f 76f
8:36am 6 13 mph 1018.9mb 59f 76f
8:30am 7 14 mph 1018.8mb 59f 75f
8:24am 8 14 mph 1018.8mb 59f 75f
8:18am 10 15 mph 1018.9mb 60f 74f
8:12am 9 14 mph 1019mb 60f 74f
8:06am 8 13 mph 1019mb 60f 74f
8:00am 10 15 mph 1019mb 60f 74f
7:54am 8 13 mph 1019mb 60f 73f
7:48am 8 13 mph 1018.9mb 60f 73f
7:42am 10 15 mph 1018.8mb 60f 73f
7:36am 9 13 mph 1018.7mb 60f 73f
7:30am 10 16 mph 1018.8mb 60f 73f
7:24am 9 14 mph 1018.8mb 60f 72f
7:18am 8 15 mph 1018.8mb 60f 72f
7:12am 9 16 mph 1018.8mb 60f 72f
7:06am 11 17 mph 1018.8mb 60f 72f
7:00am 9 15 mph 1018.7mb 60f 72f
6:54am 9 15 mph 1018.8mb 60f 72f
6:48am 9 14 mph 1018.7mb 60f 71f
6:42am 11 17 mph 1018.7mb 60f 71f
6:36am 11 16 mph 1018.7mb 60f 71f
6:30am 9 15 mph 1018.7mb 60f 71f
6:24am 7 11 mph 1018.6mb 60f 71f
6:18am 10 16 mph 1018.6mb 60f 71f
6:12am 9 14 mph 1018.6mb 60f 71f
6:06am 7 11 mph 1018.7mb 60f 71f
6:00am 8 13 mph 1018.7mb 60f 71f
5:54am 8 13 mph 1018.7mb 59f 71f
5:48am 8 15 mph 1018.8mb 59f 71f
5:42am 9 14 mph 1018.9mb 59f 71f
5:36am 8 13 mph 1018.9mb 60f 71f
5:30am 9 13 mph 1018.9mb 60f 71f
5:24am 8 13 mph 1018.9mb 60f 71f
5:18am 7 13 mph 1018.8mb 60f 71f
5:12am 9 14 mph 1018.8mb 60f 71f
5:06am 8 13 mph 1018.7mb 60f 71f
5:00am 9 14 mph 1018.7mb 60f 71f
4:54am 7 11 mph 1018.7mb 60f 71f
4:48am 8 14 mph 1018.7mb 60f 71f
4:42am 8 14 mph 1018.7mb 60f 71f
4:36am 9 13 mph 1018.7mb 61f 71f
4:30am 9 16 mph 1018.7mb 61f 71f
4:24am 8 15 mph 1018.6mb 61f 71f
4:18am 8 13 mph 1018.6mb 61f 72f
4:12am 9 15 mph 1018.5mb 61f 72f
4:06am 9 13 mph 1018.5mb 60f 72f
4:00am 8 13 mph 1018.5mb 61f 72f
3:54am 8 11 mph 1018.5mb 61f 72f
3:48am 9 13 mph 1018.4mb 61f 72f
3:42am 8 13 mph 1018.5mb 61f 72f
3:36am 8 13 mph 1018.5mb 61f 72f
3:30am 9 15 mph 1018.5mb 61f 72f
3:24am 8 13 mph 1018.5mb 61f 72f
3:18am 7 11 mph 1018.5mb 61f 72f
3:12am 7 11 mph 1018.5mb 61f 72f
3:06am 9 11 mph 1018.5mb 61f 72f
3:00am 7 11 mph 1018.4mb 61f 72f
2:54am 7 14 mph 1018.4mb 61f 72f
2:48am 9 13 mph 1018.4mb 61f 73f
2:42am 7 10 mph 1018.3mb 61f 73f
2:36am 7 11 mph 1018.3mb 61f 73f
2:30am 10 14 mph 1018.3mb 61f 73f
2:24am 9 14 mph 1018.2mb 61f 73f
2:18am 8 15 mph 1018.3mb 61f 73f
2:12am 8 11 mph 1018.2mb 62f 73f
2:06am 8 16 mph 1018.1mb 62f 73f
2:00am  -  mph 1018.1mb 62f 73f
1:54am  -  mph 1018.1mb 62f 73f
1:48am  -  mph 1018.1mb 62f 73f
1:42am  -  mph 1018.1mb 62f 74f
1:36am  -  mph 1018.1mb 62f 74f
1:30am 8 13 mph 1018mb 62f 74f
1:24am 8 13 mph 1017.9mb 62f 74f
1:18am 8 15 mph 1017.9mb 62f 74f
1:12am 8 14 mph 1017.9mb 62f 74f
1:06am 7 11 mph 1018mb 62f 74f
1:00am 9 15 mph 1018mb 62f 74f
12:54am 7 14 mph 1018.1mb 62f 74f
12:48am 7 11 mph 1018.1mb 62f 74f
12:42am 6 9 mph 1018.1mb 62f 74f
12:36am 7 13 mph 1018.2mb 62f 74f
12:30am 9 14 mph 1018.2mb 62f 75f
12:24am 8 13 mph 1018.3mb 61f 75f
12:18am 7 11 mph 1018.3mb 61f 75f
12:12am 7 13 mph 1018.3mb 61f 75f
12:06am 7 14 mph 1018.3mb 61f 75f
12:00am 8 14 mph 1018.4mb 61f 75f
Thu 05/26 11:54pm 6 10 mph 1018.4mb 61f 75f
11:48pm  -  mph 1018.5mb 61f 75f
11:42pm  -  mph 1018.5mb 61f 74f
11:36pm  -  mph 1018.5mb 61f 74f
11:30pm 7 10 mph 1018.5mb 61f 74f
11:24pm 8 14 mph 1018.4mb 61f 75f
11:18pm  -  mph 1018.4mb 61f -
11:12pm  -  mph 1018.3mb 61f -
11:06pm  -  mph 1018.4mb 61f -
11:00pm  -  mph 1018.5mb 61f -
10:54pm  -  mph 1018.5mb 61f -
10:48pm 7 13 mph 1018.5mb - -
10:42pm 8 13 mph 1018.6mb - -
10:36pm 8 14 mph 1018.6mb - -
10:30pm 9 15 mph 1018.6mb - -
10:24pm 6 11 mph 1018.6mb - -
10:18pm  -  mph 1018.5mb 61f 75f
10:12pm  -  mph 1018.5mb 61f 75f
10:06pm  -  mph 1018.5mb 61f 76f
10:00pm  -  mph 1018.4mb - -
9:54pm  -  mph 1018.4mb - -
9:48pm  -  mph 1018.4mb - -
9:42pm  -  mph 1018.3mb - -
9:36pm  -  mph 1018.3mb - -
9:30pm 7 10 mph 1018.2mb - -
9:24pm 8 14 mph 1018.2mb - -
9:18pm  -  mph 1018.2mb 61f -
9:12pm  -  mph 1018.2mb 62f -
9:06pm  -  mph 1018.1mb 62f -
9:00pm  -  mph 1018.1mb - -
8:54pm  -  mph 1018.1mb - -
8:48pm  -  mph 1018mb - -
8:42pm  -  mph 1018mb - -
8:36pm  -  mph 1018mb - -
8:30pm 8 11 mph 1017.9mb 62f -
8:24pm 6 9 mph 1017.9mb 62f -
8:18pm  -  mph - 62f 79f
8:12pm  -  mph - 62f 79f
8:06pm  -  mph - 62f 80f
8:00pm  -  mph 1017.6mb - -
7:54pm  -  mph 1017.6mb - -
7:48pm  -  mph - 62f -
7:42pm  -  mph - 62f -
7:36pm  -  mph - 62f -
7:30pm 6 13 mph 1017.3mb 62f -
7:24pm 5 9 mph 1017.3mb 62f -
7:18pm  -  mph - 62f 82f
7:12pm  -  mph - 62f 83f
7:06pm  -  mph - 62f 83f
7:00pm 9 11 mph 1017.1mb - -
6:54pm 9 13 mph 1017.1mb - -
6:48pm 9 14 mph 1017.1mb - -
6:42pm 8 13 mph 1017.1mb - -
6:36pm 10 14 mph 1017.2mb - -
6:30pm 6 9 mph 1017.1mb 62f -
6:24pm 5 7 mph 1017.2mb 62f -
6:18pm  -  mph 1017.1mb 62f 85f
6:12pm  -  mph 1017mb 62f 86f
6:06pm  -  mph 1017mb 62f 86f
6:00pm 6 8 mph 1017mb 62f -
5:54pm 6 10 mph 1017.1mb 62f -
5:48pm  -  mph - 62f 85f
5:42pm  -  mph - 62f 85f
5:36pm  -  mph - 62f 84f
5:30pm 7 8 mph 1017.4mb 62f 83f
5:24pm 7 9 mph 1017.5mb 62f 84f
5:18pm 8 10 mph 1017.5mb 63f 83f
5:12pm 6 8 mph 1017.6mb 63f 82f
5:06pm 7 9 mph 1017.7mb 63f 81f
5:00pm 8 9 mph 1017.6mb 63f 80f
4:54pm 8 9 mph 1017.6mb 63f 79f
4:48pm 8 11 mph 1017.6mb 63f 80f
4:42pm 9 13 mph 1017.5mb 63f 80f
4:36pm 9 13 mph 1017.6mb 63f 80f
4:30pm 9 13 mph 1017.7mb 63f 80f
4:24pm 7 9 mph 1017.8mb 63f 79f
4:18pm 8 11 mph 1017.9mb 63f 80f
4:12pm 7 10 mph 1018mb 63f 80f
4:06pm 8 13 mph 1018mb 63f 79f
4:00pm 9 11 mph 1018.1mb 63f 79f
3:54pm 6 11 mph 1018mb 63f 80f
3:48pm 11 15 mph 1018.1mb 63f 78f
3:42pm 10 14 mph 1018mb 63f 79f
3:36pm 10 15 mph 1018.1mb 63f 79f
3:30pm 10 16 mph 1018.2mb 63f 80f
3:24pm 13 16 mph 1018.3mb 63f 80f
3:18pm 11 16 mph 1018.3mb 63f 81f
3:12pm 9 15 mph 1018.3mb 63f 80f
3:06pm 10 14 mph 1018.4mb 63f 80f
3:00pm 11 17 mph 1018.4mb 63f 81f
2:54pm 11 16 mph 1018.3mb 63f 81f
2:48pm 10 15 mph 1018.3mb 63f 82f
2:42pm 9 13 mph 1018.3mb 62f 82f
2:36pm 7 15 mph 1018.3mb 63f 82f
2:30pm 9 13 mph 1018.4mb 63f 81f
2:24pm 10 13 mph 1018.4mb 63f 82f
2:18pm 9 13 mph 1018.4mb 63f 82f
2:12pm 11 15 mph 1018.4mb 63f 82f
2:06pm 10 13 mph 1018.6mb 63f 82f
2:00pm 11 16 mph 1018.6mb 63f 83f
1:54pm 13 16 mph 1018.7mb 63f 82f
1:48pm  -  mph 1018.7mb 63f 81f
1:42pm  -  mph 1018.7mb 63f 82f
1:36pm  -  mph 1018.7mb 63f 82f
1:30pm 10 16 mph 1018.8mb 63f 83f
1:24pm 9 14 mph 1018.9mb 63f 83f
1:18pm 10 14 mph 1019mb 63f 82f
1:12pm 9 14 mph 1019.1mb 63f 83f
1:06pm 10 14 mph 1019.1mb 63f 83f
1:00pm 10 15 mph 1019.2mb 64f 82f
12:54pm 9 13 mph 1019.2mb 64f 83f
12:48pm 11 14 mph 1019.2mb 64f 83f
12:42pm 11 15 mph 1019.2mb 64f 83f
12:36pm 11 15 mph 1019.3mb 64f 83f
12:30pm 11 15 mph 1019.1mb 64f 84f
12:24pm 9 13 mph 1019.2mb 64f 84f
12:18pm 7 13 mph 1019.4mb 64f 83f
12:12pm 2 3 mph 1019.5mb 64f 82f
12:06pm  -  3 mph 1019.6mb 63f 83f
12:00pm 2 3 mph 1019.6mb 62f 82f
11:54am 6 7 mph 1019.6mb 62f 82f
11:48am 6
mph
1019.6mb 61f 81f
11:42am 5 6 mph 1019.7mb 61f 80f
11:36am  -  3 mph 1019.6mb 61f 82f
11:30am 2 5 mph 1019.5mb 61f 81f
11:24am  -  1 mph 1019.6mb 61f 83f
11:18am 1 3 mph 1019.6mb 60f 82f
11:12am 3 6 mph 1019.6mb 60f 80f
11:06am 3 6 mph 1019.7mb 60f 82f
11:00am 6 9 mph 1019.8mb 60f 83f
10:54am 1 5 mph 1019.9mb 60f 80f
10:48am 1 3 mph 1019.9mb 60f 80f
10:42am 2 3 mph 1019.9mb 60f 80f
10:36am 6
mph
1020mb 60f 78f
10:30am 1 3 mph 1020.1mb 60f 81f
10:24am 5 7 mph 1020.1mb 60f 82f
10:18am 7 9 mph 1020.1mb 60f 82f
10:12am 6 8 mph 1020.1mb 60f 82f
10:06am 6 8 mph 1020.1mb 60f 81f
10:00am 5 7 mph 1020.1mb 60f 81f
9:54am 6 9 mph 1020.2mb 60f 81f
9:48am 5 8 mph 1020.3mb 60f 80f
9:42am 5 8 mph 1020.4mb 60f 80f
9:36am 8 10 mph 1020.5mb 60f 80f
9:30am 7 9 mph 1020.5mb 60f 79f
9:24am 7 8 mph 1020.6mb 60f 79f
9:18am 3 7 mph 1020.6mb 60f 79f
9:12am 6 8 mph 1020.6mb 60f 79f
9:06am 5 8 mph 1020.7mb 60f 78f
9:00am 3
mph
1020.7mb 60f 78f
8:54am 3 9 mph 1020.7mb 60f 78f
8:48am 2 3 mph 1020.8mb 60f 77f
8:42am 3 8 mph 1020.8mb 60f 77f
8:36am 3 6 mph 1020.8mb 60f 76f
8:30am 3 7 mph 1020.8mb 60f 76f
8:24am 3 7 mph 1020.8mb 60f 75f
8:18am 5 7 mph 1020.8mb 60f 74f
8:12am 5 6 mph 1020.8mb 60f 74f
8:06am 6 9 mph 1020.8mb 60f 74f
8:00am 6 9 mph 1020.8mb 59f 73f
7:54am 6 8 mph 1020.8mb 59f 73f
7:48am 7 10 mph 1020.8mb 59f 72f
7:42am 7 9 mph 1020.7mb 59f 71f
7:36am 6 9 mph 1020.7mb 60f 71f
7:30am 7 9 mph 1020.7mb 60f 70f
7:24am 6 8 mph 1020.6mb 60f 69f
7:18am 7 11 mph 1020.6mb 60f 69f
7:12am 7 10 mph 1020.6mb 60f 69f
7:06am 6 10 mph 1020.6mb 60f 68f
7:00am 6 9 mph 1020.5mb 60f 68f
6:54am 7 10 mph 1020.4mb 60f 67f
6:48am 7 10 mph 1020.4mb 60f 67f
6:42am 7 10 mph 1020.4mb 60f 67f
6:36am 7 10 mph 1020.4mb 60f 67f
6:30am 6 9 mph 1020.4mb 60f 67f
6:24am 7 10 mph 1020.3mb 60f 67f
6:18am 7 9 mph 1020.3mb 60f 67f
6:12am 7 9 mph 1020.3mb 60f 67f
6:06am 6 8 mph 1020.3mb 61f 67f
6:00am 6 9 mph 1020.3mb 61f 67f
5:54am 6 9 mph 1020.2mb 61f 67f
5:48am 7 10 mph 1020.2mb 61f 67f
5:42am 6 9 mph 1020.2mb 61f 67f
5:36am 7 9 mph 1020mb 61f 67f
5:30am 7 9 mph 1020mb 61f 67f
5:24am 6 9 mph 1019.9mb 61f 67f
5:18am 6 8 mph 1019.8mb 61f 67f
5:12am 6 8 mph 1019.7mb 61f 67f
5:06am 5 6 mph 1019.7mb 61f 67f
5:00am 6 7 mph 1019.7mb 61f 67f
4:54am 6 8 mph 1019.6mb 61f 68f
4:48am 7 8 mph 1019.6mb 61f 68f
4:42am 6 8 mph 1019.6mb 61f 68f
4:36am 7 8 mph 1019.6mb 61f 67f
4:30am 6 7 mph 1019.6mb 61f 68f
4:24am 6 8 mph 1019.6mb 61f 68f
4:18am 7 9 mph 1019.6mb 61f 69f
4:12am 7 9 mph 1019.6mb 61f 69f
4:06am 6 10 mph 1019.6mb 61f 69f
4:00am 6 8 mph 1019.7mb 61f 69f
3:54am 7 9 mph 1019.6mb 61f 69f
3:48am 7 9 mph 1019.6mb 61f 69f
3:42am 7 10 mph 1019.6mb 61f 70f
3:36am 7 10 mph 1019.6mb 61f 70f
3:30am 7 9 mph 1019.5mb 61f 70f
3:24am 7 10 mph 1019.6mb 61f 69f
3:18am 6 9 mph 1019.6mb 60f 69f
3:12am 7 9 mph 1019.6mb 60f 69f
3:06am 6 10 mph 1019.7mb 60f 69f
3:00am 6 9 mph 1019.6mb 60f 69f
2:54am 6 9 mph 1019.6mb 60f 69f
2:48am 8 11 mph 1019.7mb 60f 69f
2:42am 7 10 mph 1019.7mb 60f 69f
2:36am 6 8 mph 1019.6mb 61f 69f
2:30am 7 9 mph 1019.6mb 62f 70f
2:24am 6 9 mph 1019.6mb 62f 70f
2:18am 7 10 mph 1019.7mb 62f 70f
2:12am 8 10 mph 1019.7mb 62f 70f
2:06am 8 10 mph 1019.7mb 62f 70f
2:00am 7 11 mph 1019.7mb 62f 70f
1:54am 7 11 mph 1019.6mb 63f 71f
1:48am 9 13 mph 1019.6mb 63f 71f
1:42am 7 10 mph 1019.7mb 63f 70f
1:36am 8 13 mph 1019.7mb 63f 71f
1:30am 6 9 mph 1019.8mb 63f 70f
1:24am 7 10 mph 1019.8mb 63f 70f
1:18am 6 9 mph 1019.9mb 63f 71f
1:12am 6 8 mph 1019.8mb 63f 70f
1:06am 6 8 mph 1019.8mb 63f 71f
1:00am 7 9 mph 1019.7mb 63f 71f
12:54am 7 11 mph 1019.7mb 63f 71f
12:48am 7 10 mph 1019.7mb 63f 71f
12:42am 7 10 mph 1019.7mb 63f 71f
12:36am 6 9 mph 1019.7mb 63f 71f
12:30am 6 9 mph 1019.8mb 63f 71f
12:24am 7 9 mph 1019.8mb 63f 71f
12:18am 7 10 mph 1019.9mb 63f 71f
12:12am 7 10 mph 1019.8mb 63f 71f
12:06am 6 9 mph 1019.8mb 63f 71f
12:00am 7 10 mph 1019.8mb 63f 71f
Wed 05/25 11:54pm 6 10 mph 1019.8mb 63f 71f
11:48pm  -  mph 1019.8mb 63f 71f
11:42pm  -  mph 1019.8mb 63f 71f
11:36pm  -  mph 1019.8mb 63f 71f
11:30pm 6 8 mph 1019.8mb 63f 72f
11:24pm 6 7 mph 1019.8mb 62f 72f
11:18pm  -  mph 1019.8mb 62f 72f
11:12pm  -  mph 1019.8mb 62f 72f
11:06pm  -  mph 1019.8mb 62f 72f
11:00pm  -  mph - 62f 73f
10:54pm  -  mph - 62f 73f
10:48pm  -  mph 1019.8mb - -
10:42pm  -  mph 1019.9mb - -
10:36pm  -  mph 1019.9mb - -
10:30pm 5 7 mph 1019.9mb 62f -
10:24pm 5 7 mph 1020mb 62f -
10:18pm  -  mph 1020.1mb 62f 74f
10:12pm  -  mph 1020.1mb 63f 74f
10:06pm  -  mph 1020.1mb 63f 74f
10:00pm 5 6 mph 1020mb 63f -
9:54pm 5 6 mph 1020.1mb 63f -
9:48pm  -  mph 1020mb 63f -
9:42pm  -  mph 1020mb 63f -
9:36pm  -  mph 1019.9mb 63f -
9:30pm 5 6 mph 1019.9mb 63f -
9:24pm 5 6 mph 1019.9mb 63f -
9:18pm 5 6 mph 1019.8mb 63f -
9:12pm 5 6 mph 1019.8mb 63f -
9:06pm 6 7 mph 1019.7mb 63f -
9:00pm  -  mph 1019.7mb 63f -
8:54pm  -  mph 1019.7mb 63f -
8:48pm  -  mph 1019.6mb 63f -
8:42pm  -  mph 1019.6mb 63f -
8:36pm  -  mph 1019.6mb 63f -
8:30pm 5 6 mph 1019.5mb 63f -
8:24pm 5 6 mph 1019.4mb 63f -
8:18pm  -  mph 1019.4mb 63f 78f
8:12pm  -  mph 1019.4mb 63f 79f
8:06pm  -  mph 1019.4mb 63f 78f
8:00pm 6 7 mph 1019.4mb 63f -
7:54pm 3 5 mph 1019.4mb 63f -
7:48pm 3 6 mph - 63f -
7:42pm 5 6 mph - 63f -
7:36pm 5 6 mph - 63f -
7:30pm 5 6 mph 1019.3mb 62f -
7:24pm 3 5 mph 1019.3mb 61f -
7:18pm  -  mph 1019.3mb 61f 80f
7:12pm  -  mph 1019.3mb 61f 80f
7:06pm  -  mph 1019.4mb 61f 81f
7:00pm  -  mph 1019.3mb 61f -
6:54pm  -  mph 1019.3mb 61f -
6:48pm 3 5 mph 1019.3mb - -
6:42pm 3 5 mph 1019.3mb - -
6:36pm 5 7 mph 1019.3mb - -
6:30pm 3 6 mph 1019.3mb - -
6:24pm 2 5 mph 1019.4mb - -
6:18pm  -  2 mph 1019.5mb 61f 79f
6:12pm  -  1 mph 1019.6mb 61f 79f
6:06pm  -  1 mph 1019.6mb 61f 78f
6:00pm  -  1 mph 1019.6mb 61f -
5:54pm 2
mph
1019.6mb 61f -
5:48pm  -  mph 1019.5mb - -
5:42pm  -  mph 1019.6mb - -
5:36pm  -  mph 1019.6mb - -
5:30pm 3 5 mph 1019.7mb 61f 75f
5:24pm 5
mph
1019.6mb 61f 76f
5:18pm 3 5 mph 1019.7mb 61f 76f
5:12pm 6 9 mph 1019.7mb 61f 77f
5:06pm 8 10 mph 1019.6mb 61f 76f
5:00pm 13 14 mph 1019.6mb 61f 80f
4:54pm 11 13 mph 1019.6mb 61f 79f
4:48pm 10 11 mph 1019.7mb 61f 78f
4:42pm 8 11 mph 1019.7mb 61f 76f
4:36pm 7 10 mph 1019.6mb 61f 76f
4:30pm 9 11 mph 1019.6mb 61f 80f
4:24pm 3 6 mph 1019.6mb 61f 78f
4:18pm 3 5 mph 1019.6mb 61f 78f
4:12pm 6 8 mph 1019.6mb 61f 76f
4:06pm 5 7 mph 1019.6mb 61f 77f
4:00pm 6 8 mph 1019.6mb 61f 77f
3:54pm 7 13 mph 1019.7mb 61f 81f
3:48pm 10 13 mph 1019.7mb 61f 80f
3:42pm 10 11 mph 1019.7mb 61f 81f
3:36pm 9 15 mph 1019.7mb 61f 80f
3:30pm 3 5 mph 1019.7mb 61f 81f
3:24pm 5 6 mph 1019.6mb 61f 81f
3:18pm 3 5 mph 1019.7mb 61f 80f
3:12pm 2 3 mph 1019.7mb 61f 81f
3:06pm 5 6 mph 1019.7mb 61f 80f
3:00pm 5 6 mph 1019.7mb 61f 82f
2:54pm 3 5 mph 1019.8mb 61f 82f
2:48pm 5 6 mph 1019.8mb 61f 81f
2:42pm 5 6 mph 1019.9mb 61f 81f
2:36pm 5 6 mph 1020mb 61f 81f
2:30pm 3 6 mph 1020mb 61f 82f
2:24pm 3 5 mph 1020mb 61f 82f
2:18pm 3 6 mph 1020mb 61f 82f
2:12pm 2 3 mph 1020.1mb 61f 82f
2:06pm 3 5 mph 1020.1mb 61f 81f
2:00pm 5 7 mph 1020.3mb 61f 80f
1:54pm 5 6 mph 1020.2mb 61f 80f
1:48pm 6 7 mph 1020.2mb 61f 80f
1:42pm 5 7 mph 1020.2mb 61f 80f
1:36pm 5 6 mph 1020.2mb 61f 80f
1:30pm 6
mph
1020.2mb 61f 79f
1:24pm 2 5 mph 1020.3mb 61f 79f
1:18pm 6
mph
1020.3mb 61f 79f
1:12pm 6 7 mph 1020.3mb 61f 79f
1:06pm 5 6 mph 1020.3mb 61f 78f
1:00pm 5 6 mph 1020.4mb 61f 77f
12:54pm 5
mph
1020.4mb 60f 78f
12:48pm 5 6 mph 1020.4mb 60f 77f
12:42pm 5
mph
1020.3mb 60f 77f
12:36pm 5
mph
1020.3mb 60f 77f
12:30pm 5 6 mph 1020.3mb 60f 77f
12:24pm 5 6 mph 1020.3mb 60f 76f
12:18pm 6 7 mph 1020.3mb 60f 74f
12:12pm 5
mph
1020.3mb 60f 76f
12:06pm 3 5 mph 1020.3mb 60f 76f
12:00pm 5
mph
1020.3mb 60f 77f
11:54am 3
mph
1020.3mb 60f 75f
11:48am 3 5 mph 1020.2mb 60f 74f
11:42am 2
mph
1020.3mb 60f 74f
11:36am 2
mph
1020.3mb 60f 75f
11:30am 1
mph
1020.3mb 60f 74f
11:24am 1 2 mph 1020.4mb 60f 73f
11:18am 2
mph
1020.4mb 60f 73f
11:12am 2
mph
1020.4mb 60f 74f
11:06am 2 3 mph 1020.3mb 60f 73f
11:00am 2
mph
1020.3mb 60f 73f
10:54am 2 3 mph 1020.3mb 60f 74f
10:48am 2
mph
1020.3mb 60f 73f
10:42am 1 2 mph 1020.4mb 60f 74f
10:36am 2
mph
1020.4mb 60f 74f
10:30am 2 3 mph 1020.4mb 60f 74f
10:24am 1 2 mph 1020.3mb 60f 75f
10:18am 3 5 mph 1020.4mb 60f 75f
10:12am 2 3 mph 1020.4mb 60f 74f
10:06am 2 3 mph 1020.5mb 60f 74f
10:00am 5
mph
1020.5mb 60f 74f
9:54am 5
mph
1020.5mb 60f 74f
9:48am 6
mph
1020.4mb 60f 74f
9:42am 7
mph
1020.4mb 60f 74f
9:36am 7
mph
1020.4mb 59f 74f
9:30am 7
mph
1020.4mb 59f 73f
9:24am 7 8 mph 1020.4mb 59f 73f
9:18am 7
mph
1020.4mb 59f 72f
9:12am 6 7 mph 1020.4mb 59f 72f
9:06am 7
mph
1020.4mb 59f 71f
9:00am 7
mph
1020.3mb 59f 71f
8:54am 7 8 mph 1020.3mb 59f 71f
8:48am 7 9 mph 1020.3mb 59f 70f
8:42am 8
mph
1020.3mb 59f 70f
8:36am 7
mph
1020.3mb 59f 69f
8:30am 8 9 mph 1020.3mb 59f 70f
8:24am 7 8 mph 1020.3mb 58f 69f
8:18am 8 9 mph 1020.3mb 58f 70f
8:12am 7 9 mph 1020.2mb 58f 70f
8:06am 8 10 mph 1020.1mb 58f 70f
8:00am 6 8 mph 1020.2mb 58f 70f
7:54am 8 10 mph 1020.1mb 58f 70f
7:48am 9 10 mph 1020mb 58f 70f
7:42am 9 11 mph 1019.9mb 58f 69f
7:36am 9 10 mph 1019.9mb 58f 68f
7:30am 8 10 mph 1019.9mb 58f 68f
7:24am 8 9 mph 1019.8mb 58f 68f
7:18am 7 8 mph 1019.7mb 58f 68f
7:12am 7 8 mph 1019.7mb 58f 68f
7:06am 8 10 mph 1019.6mb 58f 67f
7:00am 7 10 mph 1019.5mb 58f 67f
6:54am 8 10 mph 1019.5mb 58f 67f
6:48am 8 10 mph 1019.5mb 58f 67f
6:42am 8 10 mph 1019.4mb 59f 67f
6:36am 8 10 mph 1019.3mb 59f 66f
6:30am 7 10 mph 1019.3mb 59f 66f
6:24am 7 9 mph 1019.2mb 59f 66f
6:18am 7 9 mph 1019.1mb 59f 66f
6:12am 8 9 mph 1019.1mb 59f 66f
6:06am 8 11 mph 1018.9mb 59f 66f
6:00am 8 10 mph 1018.8mb 59f 66f
5:54am 8 10 mph 1018.8mb 59f 66f
5:48am 8 11 mph 1018.6mb 59f 66f
5:42am 7 9 mph 1018.6mb 59f 65f
5:36am 6 10 mph 1018.5mb 59f 65f
5:30am 6 8 mph 1018.3mb 59f 66f
5:24am 7 9 mph 1018.3mb 59f 66f
5:18am 7 9 mph 1018.2mb 60f 66f
5:12am 7 9 mph 1018.2mb 60f 66f
5:06am 7 9 mph 1018.1mb 60f 66f
5:00am 7 9 mph 1018mb 60f 66f
4:54am 7 9 mph 1017.9mb 60f 66f
4:48am 7 9 mph 1017.9mb 60f 66f
4:42am 7 9 mph 1018mb 60f 66f
4:36am 6 10 mph 1018mb 60f 66f
4:30am 7 9 mph 1018mb 60f 67f
4:24am 8 11 mph 1018mb 60f 67f
4:18am 9 13 mph 1018mb 60f 67f
4:12am 7 10 mph 1017.9mb 60f 66f
4:06am 7 9 mph 1017.7mb 60f 66f
4:00am 7 9 mph 1017.7mb 60f 66f
3:54am 7 10 mph 1017.6mb 60f 66f
3:48am 7 10 mph 1017.6mb 60f 67f
3:42am 8 11 mph 1017.6mb 60f 67f
3:36am 8 13 mph 1017.6mb 60f 67f
3:30am 7 10 mph 1017.5mb 60f 67f
3:24am 8 10 mph 1017.3mb 60f 67f
3:18am 9 13 mph 1017.2mb 60f 67f
3:12am 9 14 mph 1017.2mb 60f 67f
3:06am 10 14 mph 1017.2mb 59f 67f
3:00am 7 9 mph 1017.2mb 59f 67f
2:54am 9 13 mph 1017.1mb 59f 67f
2:48am 10 16 mph 1017.1mb 59f 67f
2:42am 10 15 mph 1017.1mb 59f 68f
2:36am 9 11 mph 1017.1mb 60f 68f
2:30am 9 13 mph 1017.1mb 60f 68f
2:24am 9 13 mph 1017mb 60f 68f
2:18am 9 14 mph 1017mb 60f 68f
2:12am 8 11 mph 1017mb 60f 68f
2:06am 9 13 mph 1016.9mb 60f 68f
2:00am 9 14 mph 1016.9mb 61f 68f
1:54am 9 13 mph 1016.9mb 61f 68f
1:48am 9 14 mph 1016.9mb 61f 68f
1:42am 9 14 mph 1016.9mb 61f 69f
1:36am 9 13 mph 1016.9mb 61f 69f
1:30am 10 13 mph 1016.8mb 61f 69f
1:24am 10 13 mph 1016.8mb 61f 69f
1:18am 9 13 mph 1016.9mb 61f 69f
1:12am 10 14 mph 1017mb 61f 69f
1:06am 10 14 mph 1017mb 61f 69f
1:00am 11 14 mph 1016.9mb 61f 69f
12:54am 10 14 mph 1016.9mb 61f 69f
12:48am 9 15 mph 1016.8mb 61f 69f
12:42am 10 14 mph 1016.8mb 61f 70f
12:36am 10 17 mph 1016.9mb 61f 70f
12:30am 11 15 mph 1016.9mb 61f 70f
12:24am 10 14 mph 1016.9mb 61f 70f
12:18am 13 18 mph 1016.9mb 61f 70f
12:12am 14 18 mph 1016.9mb 61f 70f
12:06am 10 15 mph 1016.9mb 61f 70f
12:00am 13 17 mph 1016.8mb 61f 70f
Tue 05/24 11:54pm 11 15 mph 1016.7mb 61f 70f
11:48pm  -  mph 1016.7mb 62f 70f
11:42pm  -  mph 1016.7mb 62f 70f
11:36pm  -  mph 1016.6mb 62f 70f
11:30pm 10 16 mph 1016.5mb 62f 70f
11:24pm 9 14 mph 1016.5mb 62f 70f
11:18pm  -  mph 1016.5mb 62f 70f
11:12pm  -  mph 1016.4mb 62f 70f
11:06pm  -  mph 1016.4mb 62f 71f
11:00pm 10 14 mph 1016.4mb 62f 71f
10:54pm 10 16 mph 1016.4mb 62f 71f
10:48pm 10 14 mph - - -
10:42pm 9 13 mph - - -
10:36pm 9 13 mph - - -
10:30pm 8 13 mph - 61f -
10:24pm 9 14 mph - 61f -
10:18pm  -  mph 1016.1mb 61f 71f
10:12pm  -  mph 1016mb 61f 71f
10:06pm  -  mph 1015.9mb 61f 71f
10:00pm  -  mph 1015.8mb 61f 71f
9:54pm  -  mph 1015.7mb 61f 71f
9:48pm  -  mph 1015.6mb - -
9:42pm  -  mph 1015.6mb - -
9:36pm  -  mph 1015.5mb - -
9:30pm 8 10 mph 1015.4mb 61f -
9:24pm 9 13 mph 1015.4mb 61f -
9:18pm  -  mph 1015.4mb 61f 72f
9:12pm  -  mph 1015.4mb 61f 72f
9:06pm  -  mph 1015.3mb 61f 72f
9:00pm  -  mph 1015.2mb 61f -
8:54pm  -  mph 1015.2mb 61f -
8:48pm  -  mph 1015.1mb - -
8:42pm  -  mph 1015.1mb - -
8:36pm  -  mph 1015.1mb - -
8:30pm 8 11 mph 1015.2mb - 74f
8:24pm 7 9 mph 1015.1mb - 74f
8:18pm  -  mph 1015.1mb 60f 75f
8:12pm  -  mph 1015.1mb 60f 75f
8:06pm  -  mph 1015.1mb 60f 76f
8:00pm  -  mph 1015mb - 76f
7:54pm  -  mph 1015mb - 77f
7:48pm 9 11 mph - 60f -
7:42pm 8 13 mph - 60f -
7:36pm 10 14 mph - 60f -
7:30pm  -  mph 1014.8mb 60f -
7:24pm  -  mph 1014.8mb 60f -
7:18pm  -  mph 1014.8mb 60f 78f
7:12pm  -  mph 1014.8mb 60f 79f
7:06pm  -  mph 1014.7mb 60f 79f
7:00pm  -  mph 1014.7mb 60f 79f
6:54pm  -  mph 1014.7mb 60f 79f
6:48pm  -  mph 1014.6mb 60f 79f
6:42pm  -  mph 1014.6mb 60f 79f
6:36pm  -  mph 1014.6mb 60f 80f
6:30pm 11 15 mph 1014.6mb 60f -
6:24pm 10 15 mph 1014.5mb 60f -
6:18pm 10 15 mph 1014.5mb 60f -
6:12pm 13 15 mph 1014.5mb 60f -
6:06pm 16 20 mph 1014.5mb 60f -
6:00pm  -  mph - - 79f
5:54pm  -  mph - - 79f
5:48pm  -  mph 1014.4mb 60f 79f
5:42pm  -  mph 1014.4mb 60f 79f
5:36pm  -  mph 1014.4mb 60f 79f
5:30pm 13 16 mph 1014.4mb 60f 79f
5:24pm 11 14 mph 1014.5mb 60f 78f
5:18pm 15 20 mph 1014.5mb 60f 78f
5:12pm 13 15 mph 1014.4mb 60f 78f
5:06pm 9 11 mph 1014.4mb 60f 77f
5:00pm 10 14 mph 1014.4mb 60f 78f
4:54pm 11 14 mph 1014.4mb 60f 78f
4:48pm 2 5 mph 1014.4mb 60f 75f
4:42pm 3 6 mph 1014.4mb 60f 74f
4:36pm 10 14 mph 1014.4mb 60f 77f
4:30pm 10 15 mph 1014.4mb 60f 77f
4:24pm 8 10 mph 1014.5mb 60f 75f
4:18pm 13 15 mph 1014.5mb 60f 75f
4:12pm 13 15 mph 1014.5mb 60f 74f
4:06pm 10 14 mph 1014.5mb 60f 76f
4:00pm 10 13 mph 1014.5mb 60f 76f
3:54pm 5 9 mph 1014.5mb 60f 75f
3:48pm 11 14 mph 1014.5mb 60f 75f
3:42pm 10 14 mph 1014.4mb 60f 75f
3:36pm 10 13 mph 1014.4mb 60f 76f
3:30pm 8 11 mph 1014.4mb 60f 75f
3:24pm 8 11 mph 1014.5mb 60f 75f
3:18pm 5 6 mph 1014.5mb 60f 73f
3:12pm 3 5 mph 1014.5mb 60f 73f
3:06pm 7 9 mph 1014.5mb 60f 73f
3:00pm 8 11 mph 1014.5mb 60f 74f
2:54pm 5 6 mph 1014.7mb 60f 72f
2:48pm 5 7 mph 1014.6mb 60f 71f
2:42pm 5 6 mph 1014.6mb 60f 69f
2:36pm 2 3 mph 1014.6mb 60f 71f
2:30pm 3
mph
1014.6mb 60f 71f
2:24pm 2
mph
1014.6mb 60f 70f
2:18pm  -  mph 1014.7mb 60f 69f
2:12pm  -  1 mph 1014.8mb 60f 66f
2:06pm 1 2 mph 1014.9mb 60f 65f
2:00pm 3
mph
1015mb 60f 65f
1:54pm 2 3 mph 1015.1mb 60f 65f
1:48pm 5 6 mph 1015.1mb 60f 64f
1:42pm 6
mph
1015.1mb 60f 64f
1:36pm 7 8 mph 1015.2mb 60f 64f
1:30pm 8 9 mph 1015.2mb 60f 64f
1:24pm 7 8 mph 1015.2mb 60f 64f
1:18pm 7 8 mph 1015.2mb 60f 64f
1:12pm 6 7 mph 1015.2mb 60f 64f
1:06pm 7 9 mph 1015.2mb 60f 63f
1:00pm 8 9 mph 1015.2mb 60f 63f
12:54pm 8 9 mph 1015.2mb 60f 63f
12:48pm 9 10 mph 1015.3mb 60f 63f
12:42pm 9 10 mph 1015.3mb 60f 63f
12:36pm 7 8 mph 1015.2mb 60f 63f
12:30pm 8 9 mph 1015.1mb 59f 63f
12:24pm 7 8 mph 1015.1mb 60f 63f
12:18pm 8 9 mph 1015.1mb 60f 63f
12:12pm 8 9 mph 1015.2mb 60f 62f
12:06pm 7 8 mph 1015.2mb 59f 62f
12:00pm 7 8 mph 1015.3mb 59f 62f
11:54am 5 7 mph 1015.3mb 59f 63f
11:48am 7
mph
1015.2mb 59f 62f
11:42am 6 7 mph 1015.2mb 59f 62f
11:36am 8 9 mph 1015.1mb 59f 62f
11:30am 8 9 mph 1015mb 59f 62f
11:24am 5 7 mph 1015mb 59f 62f
11:18am 8 9 mph 1015.1mb 59f 62f
11:12am 8 10 mph 1015.1mb 59f 62f
11:06am 8 9 mph 1015.2mb 59f 62f
11:00am 9 11 mph 1015.2mb 59f 62f
10:54am 7 11 mph 1015.2mb 59f 62f
10:48am 10 13 mph 1015.1mb 59f 62f
10:42am 10 11 mph 1015.1mb 59f 62f
10:36am 10 13 mph 1015mb 59f 62f
10:30am 10 11 mph 1015mb 59f 62f